Weather History for Curtin, WE

Change the Weather History Date:

Tuesday, May 7, 2013

  Actual Average Record
Temperature  
Mean Temperature 87 °F -  
Max Temperature 101 °F - - ()
Min Temperature 73 °F - - ()
Cooling Degree Days 22    
Growing Degree Days 37 (Base 50)    
Moisture  
Dew Point 71 °F    
Average Humidity 67    
Maximum Humidity 100    
Minimum Humidity 28    
Precipitation  
Precipitation 0.00 in - - ()
Sea Level Pressure  
Sea Level Pressure 29.79 in    
Wind  
Wind Speed 3 mph ()    
Max Wind Speed 8 mph    
Max Gust Speed -    
T = Trace of Precipitation, MM = Missing Value Source: Averaged Metar Reports

Daily Weather History Graph

Daily Weather History Graph

Search for Another Location

Airport:

Trip Planner

Search our weather history database for the weather conditions in past years. The results will help you decide how hot, cold, wet, or windy it might be!

Date:

Astronomy

May. 07, 2013 Rise Set
Actual Time 5:59 AM AWST 5:22 PM AWST
Civil Twilight 5:36 AM AWST 5:45 PM AWST
Nautical Twilight 5:10 AM AWST 6:11 PM AWST
Astronomical Twilight 4:45 AM AWST 6:37 PM AWST
Moon 3:25 AM AWST (5/7) 3:26 PM AWST (5/7)
Length of Visible Light 12h 08m
Length of Day
11h 23m
Waning Crescent, 8% of the Moon is Illuminated
May 7
Waning Crescent
May 10
New
May 18
First Quarter
May 25
Full
Jun 1
Last Quarter

Hourly Weather History & Observations

Time (AWST) Temp. Heat Index Dew Point Humidity Pressure Visibility Wind Dir Wind Speed Gust Speed Precip Events Conditions
12:00 AM 79 °F - 75 °F 83% 29.80 in - North 3.5 mph - -  
12:00 AM 78.8 °F - 75.2 °F 89% 29.80 in - North 3.5 mph - N/A   Unknown
1:00 AM 78.8 °F - 75.2 °F 89% 29.80 in - Calm Calm - N/A   Unknown
2:00 AM 75.2 °F - 71.6 °F 89% 29.77 in - Calm Calm - N/A   Unknown
3:00 AM 75 °F - 72 °F 89% 29.77 in - Calm Calm - -  
3:00 AM 75.2 °F - 71.6 °F 89% 29.77 in - Calm Calm - N/A   Unknown
4:00 AM 73.4 °F - 71.6 °F 94% 29.77 in - North 3.5 mph - N/A   Unknown
5:00 AM 75.2 °F - 73.4 °F 94% 29.80 in - ENE 5.8 mph - N/A   Unknown
6:00 AM 76 °F - 76 °F 99% 29.82 in - ENE 5.8 mph - -  
6:00 AM 77.0 °F - 75.2 °F 94% 29.83 in - ENE 5.8 mph - N/A   Unknown
7:00 AM 77.0 °F - 77.0 °F 100% 29.83 in - ENE 2.3 mph - N/A   Unknown
8:00 AM 86.0 °F 96.9 °F 77.0 °F 74% 29.83 in - NNE 6.9 mph - N/A   Unknown
9:00 AM 89 °F - 77 °F 60% 29.85 in - North 6.9 mph - -  
9:00 AM 89.6 °F 102.2 °F 77.0 °F 66% 29.86 in - North 6.9 mph - N/A   Unknown
10:00 AM 93.2 °F 102.4 °F 73.4 °F 52% 29.83 in - North 5.8 mph - N/A   Unknown
11:00 AM 95.0 °F 103.2 °F 71.6 °F 47% 29.80 in - NNW 5.8 mph - N/A   Unknown
12:00 PM 98 °F - 69 °F 30% 29.78 in - NNW 6.9 mph - -  
12:00 PM 98.6 °F 105.5 °F 69.8 °F 39% 29.77 in - NNW 6.9 mph - N/A   Unknown
1:00 PM 100.4 °F 103.6 °F 64.4 °F 31% 29.74 in - North 8.1 mph - N/A   Unknown
2:00 PM 100.4 °F 102.4 °F 62.6 °F 29% 29.74 in - NNE 6.9 mph - N/A   Unknown
3:00 PM 98 °F - 68 °F 28% 29.73 in - North 6.9 mph - -  
3:00 PM 98.6 °F 104.1 °F 68.0 °F 37% 29.71 in - North 6.9 mph - N/A   Unknown
4:00 PM 95.0 °F 99.5 °F 68.0 °F 41% 29.74 in - NNW 6.9 mph - N/A   Unknown
5:00 PM 89.6 °F 92.2 °F 66.2 °F 46% 29.74 in - NW 5.8 mph - N/A   Unknown
6:00 PM 85 °F - 67 °F 46% 29.78 in - NW 3.5 mph - -  
6:00 PM 84.2 °F 87.3 °F 68.0 °F 58% 29.77 in - NW 3.5 mph - N/A   Unknown
7:00 PM 82.4 °F 85.4 °F 68.0 °F 62% 29.80 in - North 3.5 mph - N/A   Unknown
8:00 PM 80.6 °F 83.9 °F 69.8 °F 70% 29.83 in - Calm Calm - N/A   Unknown
9:00 PM 78 °F - 69 °F 66% 29.84 in - Calm Calm - -  
9:00 PM 77.0 °F - 68.0 °F 74% 29.83 in - Calm Calm - N/A   Unknown
10:00 PM 78.8 °F - 73.4 °F 83% 29.83 in - NW 3.5 mph - N/A   Unknown
11:00 PM 77.0 °F - 71.6 °F 83% 29.83 in - WSW 4.6 mph - N/A   Unknown